Meteo pe oră la

Astăzi, 28 Ianuarie, Joi

Timp Temperatura Precipitaţii Vânt Presiune Umiditate
00:00 +25°C° 0 mm 1 m/s 757 mmHg 94%
01:00 +25°C° 0 mm 1 m/s 756 mmHg 95%
02:00 +25°C° 0 mm 1 m/s 756 mmHg 95%
03:00 +24°C° 0 mm 1 m/s 756 mmHg 96%
04:00 +24°C° 0 mm 1 m/s 756 mmHg 96%
05:00 +24°C° 0 mm 1 m/s 756 mmHg 96%
06:00 +25°C° 0 mm 1 m/s 757 mmHg 91%
07:00 +26°C° 0 mm 1 m/s 757 mmHg 86%
08:00 +27°C° 0 mm 2 m/s 758 mmHg 80%
09:00 +29°C° 0.2 mm 2 m/s 758 mmHg 75%
10:00 +30°C° 0.2 mm 1 m/s 757 mmHg 70%
11:00 +32°C° 0.2 mm 1 m/s 757 mmHg 65%
12:00 +32°C° 0.4 mm 1 m/s 756 mmHg 63%
13:00 +34°C° 0.4 mm 2 m/s 756 mmHg 62%
14:00 +34°C° 0.4 mm 2 m/s 755 mmHg 60%
15:00 +32°C° 0.7 mm 1 m/s 755 mmHg 68%
16:00 +31°C° 0.7 mm 1 m/s 754 mmHg 75%
17:00 +30°C° 0.7 mm 1 m/s 754 mmHg 83%
18:00 +28°C° 0.6 mm 1 m/s 755 mmHg 87%
19:00 +27°C° 0.6 mm 1 m/s 755 mmHg 91%
20:00 +26°C° 0.6 mm 1 m/s 756 mmHg 95%
21:00 +26°C° 1.7 mm 1 m/s 756 mmHg 95%
22:00 +26°C° 1.7 mm 1 m/s 757 mmHg 95%
23:00 +25°C° 1.7 mm 2 m/s 757 mmHg 95%

Mâine, 29 Ianuarie, Vineri

Timp Temperatura Precipitaţii Vânt Presiune Umiditate
00:00 +25°C° 0 mm 1 m/s 757 mmHg 96%
01:00 +25°C° 0 mm 1 m/s 756 mmHg 96%
02:00 +25°C° 0 mm 1 m/s 756 mmHg 97%
03:00 +25°C° 0 mm 1 m/s 756 mmHg 97%
04:00 +24°C° 0 mm 1 m/s 756 mmHg 98%
05:00 +24°C° 0 mm 1 m/s 756 mmHg 98%
06:00 +25°C° 0 mm 1 m/s 757 mmHg 95%
07:00 +26°C° 0 mm 1 m/s 757 mmHg 92%
08:00 +27°C° 0 mm 1 m/s 757 mmHg 89%
09:00 +29°C° 0 mm 2 m/s 757 mmHg 79%
10:00 +31°C° 0 mm 2 m/s 757 mmHg 68%
11:00 +34°C° 0 mm 2 m/s 757 mmHg 58%
12:00 +34°C° 0 mm 2 m/s 756 mmHg 56%
13:00 +35°C° 0 mm 2 m/s 755 mmHg 54%
14:00 +35°C° 0 mm 2 m/s 753 mmHg 52%
15:00 +34°C° 0 mm 1 m/s 753 mmHg 54%
16:00 +33°C° 0 mm 1 m/s 753 mmHg 57%
17:00 +32°C° 0 mm 1 m/s 753 mmHg 60%
18:00 +30°C° 0.9 mm 2 m/s 754 mmHg 70%
19:00 +28°C° 0.9 mm 2 m/s 755 mmHg 80%
20:00 +27°C° 0.9 mm 2 m/s 756 mmHg 91%
21:00 +26°C° 0.2 mm 2 m/s 756 mmHg 92%
22:00 +26°C° 0.2 mm 2 m/s 757 mmHg 93%
23:00 +25°C° 0.2 mm 2 m/s 757 mmHg 94%

Poimâine, 30 Ianuarie, Sâmbătă

Timp Temperatura Precipitaţii Vânt Presiune Umiditate
00:00 +25°C° 0 mm 1 m/s 757 mmHg 95%
01:00 +25°C° 0 mm 1 m/s 756 mmHg 96%
02:00 +25°C° 0 mm 1 m/s 756 mmHg 97%
03:00 +25°C° 0.4 mm 1 m/s 756 mmHg 97%
04:00 +25°C° 0.4 mm 1 m/s 756 mmHg 98%
05:00 +25°C° 0.4 mm 1 m/s 756 mmHg 98%
06:00 +25°C° 0.5 mm 1 m/s 757 mmHg 96%
07:00 +26°C° 0.5 mm 1 m/s 757 mmHg 94%
08:00 +27°C° 0.5 mm 1 m/s 758 mmHg 93%
09:00 +28°C° 1.1 mm 1 m/s 758 mmHg 90%
10:00 +29°C° 1.1 mm 2 m/s 758 mmHg 87%
11:00 +30°C° 1.1 mm 2 m/s 758 mmHg 84%
12:00 +30°C° 1 mm 2 m/s 757 mmHg 82%
13:00 +31°C° 1 mm 2 m/s 756 mmHg 80%
14:00 +31°C° 1 mm 2 m/s 755 mmHg 78%
15:00 +30°C° 1 mm 2 m/s 755 mmHg 82%
16:00 +29°C° 1 mm 2 m/s 755 mmHg 87%
17:00 +28°C° 1 mm 2 m/s 754 mmHg 92%
18:00 +27°C° 0.4 mm 2 m/s 755 mmHg 93%
19:00 +27°C° 0.4 mm 1 m/s 756 mmHg 95%
20:00 +26°C° 0.4 mm 1 m/s 757 mmHg 96%
21:00 +26°C° 0 mm 1 m/s 757 mmHg 97%
22:00 +26°C° 0 mm 1 m/s 757 mmHg 97%
23:00 +26°C° 0 mm 1 m/s 757 mmHg 97%

31 Ianuarie, Duminică

Timp Temperatura Precipitaţii Vânt Presiune Umiditate
00:00 +25°C° 0.1 mm 1 m/s 757 mmHg 97%
01:00 +25°C° 0.1 mm 1 m/s 757 mmHg 98%
02:00 +25°C° 0.1 mm 1 m/s 756 mmHg 98%
03:00 +25°C° 0.4 mm 1 m/s 756 mmHg 98%
04:00 +25°C° 0.4 mm 1 m/s 757 mmHg 99%
05:00 +25°C° 0.4 mm 1 m/s 757 mmHg 99%
06:00 +25°C° 0 mm 1 m/s 757 mmHg 97%
07:00 +26°C° 0 mm 1 m/s 758 mmHg 95%
08:00 +27°C° 0 mm 1 m/s 758 mmHg 94%
09:00 +27°C° 0.1 mm 1 m/s 758 mmHg 89%
10:00 +28°C° 0.1 mm 1 m/s 758 mmHg 83%
11:00 +29°C° 0.1 mm 2 m/s 758 mmHg 78%
12:00 +31°C° 0 mm 2 m/s 757 mmHg 70%
13:00 +32°C° 0 mm 2 m/s 756 mmHg 62%
14:00 +35°C° 0 mm 2 m/s 755 mmHg 54%
15:00 +34°C° 0.1 mm 2 m/s 755 mmHg 57%
16:00 +32°C° 0.1 mm 2 m/s 754 mmHg 60%
17:00 +32°C° 0.1 mm 2 m/s 754 mmHg 63%
18:00 +30°C° 0.1 mm 2 m/s 755 mmHg 70%
19:00 +29°C° 0.1 mm 2 m/s 756 mmHg 77%
20:00 +27°C° 0.1 mm 2 m/s 756 mmHg 85%
21:00 +27°C° 0 mm 2 m/s 757 mmHg 87%
22:00 +26°C° 0 mm 2 m/s 757 mmHg 89%
23:00 +26°C° 0 mm 2 m/s 757 mmHg 91%

1 Februarie, Luni

Timp Temperatura Precipitaţii Vânt Presiune Umiditate
00:00 +26°C° 0 mm 2 m/s 757 mmHg 92%
01:00 +26°C° 0 mm 2 m/s 756 mmHg 93%
02:00 +25°C° 0 mm 1 m/s 756 mmHg 94%
03:00 +25°C° 0.2 mm 1 m/s 756 mmHg 95%
04:00 +25°C° 0.2 mm 1 m/s 756 mmHg 96%
05:00 +25°C° 0.2 mm 1 m/s 756 mmHg 97%
06:00 +26°C° 0 mm 1 m/s 757 mmHg 93%
07:00 +27°C° 0 mm 2 m/s 758 mmHg 89%
08:00 +27°C° 0 mm 2 m/s 758 mmHg 84%
09:00 +29°C° 0 mm 2 m/s 758 mmHg 77%
10:00 +30°C° 0 mm 2 m/s 758 mmHg 69%
11:00 +32°C° 0 mm 2 m/s 757 mmHg 61%
12:00 +32°C° 0.1 mm 2 m/s 756 mmHg 59%
13:00 +34°C° 0.1 mm 3 m/s 756 mmHg 56%
14:00 +34°C° 0.1 mm 3 m/s 755 mmHg 54%
15:00 +34°C° 0.1 mm 2 m/s 755 mmHg 58%
16:00 +32°C° 0.1 mm 2 m/s 754 mmHg 62%
17:00 +31°C° 0.1 mm 2 m/s 754 mmHg 66%
18:00 +29°C° 0 mm 2 m/s 755 mmHg 73%
19:00 +28°C° 0 mm 2 m/s 756 mmHg 80%
20:00 +27°C° 0 mm 2 m/s 757 mmHg 87%
21:00 +26°C° 0.1 mm 1 m/s 757 mmHg 89%
22:00 +26°C° 0.1 mm 1 m/s 757 mmHg 92%
23:00 +26°C° 0.1 mm 1 m/s 757 mmHg 94%

2 Februarie, Marţi

Timp Temperatura Precipitaţii Vânt Presiune Umiditate
00:00 +25°C° 0.2 mm 1 m/s 757 mmHg 95%
01:00 +25°C° 0.2 mm 1 m/s 757 mmHg 96%
02:00 +25°C° 0.2 mm 1 m/s 756 mmHg 97%
03:00 +25°C° 0.6 mm 1 m/s 756 mmHg 97%
04:00 +25°C° 0.6 mm 1 m/s 756 mmHg 98%
05:00 +25°C° 0.6 mm 1 m/s 756 mmHg 98%
06:00 +25°C° 0.1 mm 1 m/s 757 mmHg 96%
07:00 +26°C° 0.1 mm 2 m/s 758 mmHg 93%
08:00 +27°C° 0.1 mm 2 m/s 758 mmHg 91%
09:00 +28°C° 0.3 mm 2 m/s 758 mmHg 83%
10:00 +30°C° 0.3 mm 2 m/s 758 mmHg 75%
11:00 +31°C° 0.3 mm 2 m/s 758 mmHg 67%
12:00 +32°C° 0.4 mm 2 m/s 757 mmHg 62%
13:00 +34°C° 0.4 mm 3 m/s 756 mmHg 58%
14:00 +35°C° 0.4 mm 3 m/s 755 mmHg 54%
15:00 +34°C° 0.1 mm 3 m/s 754 mmHg 57%
16:00 +33°C° 0.1 mm 3 m/s 754 mmHg 60%
17:00 +31°C° 0.1 mm 3 m/s 754 mmHg 64%
18:00 +30°C° 0 mm 2 m/s 755 mmHg 71%
19:00 +28°C° 0 mm 2 m/s 756 mmHg 77%
20:00 +27°C° 0 mm 2 m/s 757 mmHg 84%
21:00 +27°C° 0 mm 2 m/s 757 mmHg 86%
22:00 +26°C° 0 mm 2 m/s 757 mmHg 88%
23:00 +26°C° 0 mm 1 m/s 758 mmHg 90%
Arată mai mult

Formular de consimțământ

Meteoprog și furnizorii noștri de servicii pot stoca și accesa date personale, precum cookies, identificatori de dispozitiv sau alte tehnologii similare pe dispozitivul dumneavoastră și procesa astfel de date pentru a personaliza conținutul și reclamele, dar și pentru a oferi caracteristici de social media și pentru a analiza traficul.

  • Stocarea și/sau accesarea informațiilor pe dispozitivul dumneavoastră

    Cookies, identificatori de dispozitiv sau alte informații pot fi stocate sau accesate pe dispozitiv în scopurile indicate mai sus.

  • Reclame și conținut personalizat, evaluarea reclamelor și a conținutului, informații despre audiențe și dezvoltarea produselor

    Reclamele și conținutul pot fi personalizate pe baza unui profil. Pot fi adăugate date suplimentare pentru a personaliza mai bine reclamele și conținutul. Performanța reclamelor și conținutului poate fi măsurată. Pot fi obținute informații despre utilizatorii care au văzut reclamele și conținutul. Aceste date pot fi utilizate pentru a dezvolta sau îmbunătăți experiența utilizatorilor, sistemele și software-ul.

Dând clic pe ‘Sunt de acord’, permiteți utilizarea cookie-urilor menționate, a identificatorilor de dispozitiv, balizelor web sau altor tehnologii similare. Setările pot fi modificate din browser-ul dispozitivului dumneavoastră.

În anumite scopuri, interesele legitime pot prima asupra consimțământului. Puteți citi mai multe informații în acest sens în Politica privind Confidențialitatea Datelor și Cookie.